Regional Weather Roundup
Issued by NWS

Home | Current Version | Previous Version | Graphics & Text | Print | Product List | Glossary On
Versions: 1 2 3 4 5 6 7 8 9 10 11 12 13 14 15 16 17 18 19 20 21 22 23 24 25 26 27 28 29 30 31 32 33 34 35 36 37 38 39 40 41 42 43 44 45 46 47 48 49 50
707
ASUS43 KMKX 201011
RWRWI

WISCONSIN REGIONAL WEATHER ROUNDUP
NATIONAL WEATHER SERVICE MILWAUKEE/SULLIVAN WI
500 AM CDT FRI OCT 20 2017

NOTE: "FAIR" INDICATES FEW OR NO CLOUDS BELOW 12,000 FEET WITH NO
SIGNIFICANT WEATHER AND/OR OBSTRUCTIONS TO VISIBILITY.

WIZ001-002-006>008-014>016-023>028-201100-
NORTHWEST WISCONSIN

CITY           SKY/WX    TMP DP  RH WIND       PRES   REMARKS
SUPERIOR ARPT  FAIR      40  37  91 CALM      29.86S
ASHLAND        FAIR      52  41  66 S5        29.90F
HAYWARD        FAIR      55  45  68 S9        29.93S
SIREN          FAIR      54  46  75 S8        29.90S
CUMBERLAND     FAIR      45  37  76 SE3       29.94S
RICE LAKE      FAIR      48  39  72 CALM      29.96S
CHETEK         FAIR      47  40  75 E9        29.95F
LADYSMITH      FAIR      51  40  66 SE6       29.99S
EAU CLAIRE     FAIR      42  39  89 CALM      29.96S
MENOMONIE      FAIR      48  43  82 SE7       29.96R
NEW RICHMOND   FAIR      52  46  78 SE6       29.92S
OSCEOLA        FAIR      50  46  85 SE6       29.94S
$$

WIZ003>005-009-010-017-018-201100-
NORTH CENTRAL WISCONSIN

CITY           SKY/WX    TMP DP  RH WIND       PRES   REMARKS
MANITOWISH WTR FAIR      47  41  79 S5        29.97S
ARBOR VITAE    FAIR      52  40  65 S7        29.99S
WOODRUFF       FAIR      52  40  65 S7        29.99S
RHINELANDER    FAIR      53  42  66 SW8       30.02R
EAGLE RIVER    FAIR      49  37  62 CALM      30.00S
LAND O LAKES   FAIR      38  36  91 CALM      30.01S
PHILLIPS       FAIR      49  39  70 S3        29.98S
TOMAHAWK       FAIR      39  35  86 CALM      30.02S
MEDFORD        FAIR      45  37  75 S7        30.01S
MERRILL        FAIR      45  37  75 CALM      30.03R
$$

WIZ029-030-035-036-043>047-201100-
CENTRAL WISCONSIN

CITY           SKY/WX    TMP DP  RH WIND       PRES   REMARKS
WAUSAU         FAIR      50  39  66 SE6       30.02S
MOSINEE        FAIR      48  39  71 S7        30.04S
MARSHFIELD     FAIR      46  37  71 S6        30.01S
STEVENS POINT  FAIR      41  37  86 CALM      30.04S
WAUPACA        FAIR      44  39  81 CALM      30.06S
WAUTOMA        FAIR      39  37  92 CALM      30.07R
WISC RAPIDS    FAIR      52  41  66 S7        30.04S
CAMP DOUGLAS   FAIR      45  42  91 E3        30.03S
$$

WIZ011>013-019>022-031-037>040-048>050-201100-
NORTHEAST WISCONSIN

CITY           SKY/WX    TMP DP  RH WIND       PRES   REMARKS
ANTIGO         FAIR      48  40  71 S5        30.04S
SHAWANO        FAIR      47  38  71 CALM      30.05S
OCONTO         FAIR      41  38  89 CALM      30.06R
STURGEON BAY   FAIR      51  37  58 S10       30.07S
GREEN BAY      FAIR      50  41  71 S8        30.07R
MANITOWOC      FAIR      51  33  50 S9        30.10R
APPLETON       FAIR      52  37  58 S8        30.05S
CLINTONVILLE   FAIR      45  36  70 CALM      30.06R
OSHKOSH        FAIR      52  41  66 S12       30.07R
$$

WIZ032>034-041-042-053>061-201100-
SOUTHWEST WISCONSIN

CITY           SKY/WX    TMP DP  RH WIND       PRES   REMARKS
LA CROSSE      FAIR      58  50  75 S8        30.01R
SPARTA         FAIR      50  46  84 CALM      30.03S
VIROQUA        FAIR      54  49  83 S6        30.04S
BOSCOBEL       FAIR      43  41  93 CALM      30.06S FOG
PRAIRIE DU CHI FAIR      53  47  80 CALM      30.05S
PLATTEVILLE    FAIR      54  51  89 SE7       30.09R
$$

WIZ056-057-062-063-064-067-068-201100-
SOUTH CENTRAL WISCONSIN

CITY           SKY/WX    TMP DP  RH WIND       PRES   REMARKS
REEDSBURG      FAIR      54  45  73 S3        30.06R
BARABOO/DELLS  FAIR      55  45  69 S6        30.06R
LONE ROCK      FAIR      47  45  93 E3        30.07R
MINERAL POINT  FAIR      52  48  87 S8        30.08S
MADISON        FAIR      52  43  71 S5        30.09R
MIDDLETON      FAIR      55  45  68 S7        30.09R
WATERTOWN      FAIR      50  44  80 S5        30.10R
MONROE         FAIR      50  45  81 S10       30.10S
JANESVILLE     FAIR      52  43  71 CALM      30.11S
$$

WIZ051-052-058>065-066-070>072-201100-
SOUTHEAST WISCONSIN

CITY           SKY/WX    TMP DP  RH WIND       PRES   REMARKS
MILWAUKEE      FAIR      53  40  61 S7        30.13R
WAUKESHA       FAIR      50  37  62 CALM      30.13R
MILWAUKEE/TIMM FAIR      48  32  53 CALM      30.12S
RACINE         FAIR      51  43  74 S3        30.15R
BURLINGTON     FAIR      42  40  91 CALM      30.13R
KENOSHA        FAIR      49  40  71 S5        30.14R
FOND DU LAC    FAIR      53  43  68 S7        30.08R
SHEBOYGAN      FAIR      45  36  70 S5        30.10R
WEST BEND      FAIR      46  36  66 CALM      30.10S
JUNEAU         FAIR      49  42  75 S5        30.10S
$$

LSZ147-162-201100-
LAKE SUPERIOR

STATION/POSITION TIME  TEMP    WIND        PRES    WAVE
                       AIR SEA DIR/SP/G            HT/PER
                 (UTC) (F)     (DEG/KT/KT) (MB)    (FT/S)
W MID LAKE BUOY  0950   55 52              1012.2R   1/ 4
DEVILS ISLAND    1000   58     190/  4/  5 1012.0S
PORT WING        0840          180/ 12/ 18 1011.9
SAXON HARBOR     0940   61     190/  9/ 15 1011.9S
$$

LMZ867-665-643>646-201100-
LAKE MICHIGAN

STATION/POSITION TIME  TEMP    WIND        PRES    WAVE
                       AIR SEA DIR/SP/G            HT/PER
                 (UTC) (F)     (DEG/KT/KT) (MB)    (FT/S)
S GREEN BAY BUOY 1000   56 58  180/ 12/ 16 1017.6
N MID LAKE BUOY  0950   59 58  200/ 16/ 19 1018.6R   4/ 5
NORTHPORT PIER   0940   55     160/  6/ 12 1017.9R
KEWAUNEE LAKESHO 0948   54     190/ 12/ 14 1017.7F
SHEBOYGAN LAKESH 1000   55     190/ 11/ 12 1019.2R
PORT WASHINGTON  0940   53     240/  3/  5 1020.3S
MILWAUKEE LAKESH 0950   55     210/  7/  8   N/A
S MID LAKE BUOY  0950   62 61  170/ 12/ 14 1020.9R   2/ 3
KENOSHA   LAKESH 1000   57     210/  6/  9 1020.3
$$

TC  - TEMPERATURE IN CELSIUS
VSB - VISIBILITY IN STATUTE MILES
WCI - WIND CHILL INDEX
HX  - HEAT INDEX





USA.gov is the U.S. government's official web portal to all federal, state and local government web resources and services.